Miscellaneous Local Product
Issued by NWS North Platte, NE

Home | Current Version | Previous Version | Text Only | Print | Product List | Glossary On
Versions: 1 2 3 4 5 6 7 8 9 10 11 12 13 14 15 16 17 18 19 20 21 22 23 24 25 26 27 28 29 30 31 32 33 34 35 36 37 38 39 40 41 42 43 44 45 46 47 48 49 50
000
AXUS43 KLBF 180310
MISLBF


WESTERN AND NORTH CENTRAL NEBRASKA HOURLY WEATHER ROUNDUP
NATIONAL WEATHER SERVICE NORTH PLATTE NE
1000 PM CDT WED SEP 17 2014

***STATIONS NOT REPORTING VARIABLES SUCH AS SKY/WEATHER OR
PRESSURE ARE PROVIDED BY THE NEBRASKA DEPARTMENT OF
ROADS...RAWS...AND APRS NETWORKS...AND ARE NOT UNDER
NATIONAL WEATHER SERVICE QUALITY CONTROL***

...OBSERVATIONS IN AND NEAR THE EASTERN PANHANDLE OF NEBRASKA...

CITY           SKY/WX    TMP DP  RH WIND       PRES   REMARKS
PINE RIDGE     CLEAR     63  54  72 E9        29.94R
CHADRON        CLEAR     70  52  52 NE3       29.93R
ALLIANCE       MOCLDY    65  53  65 SE12      29.96R
SIDNEY         MOCLDY    70  47  43 SE6       30.00R
WHITECLAY        N/A     68  52  56 SE14        N/A
RUSHVILLE        N/A     65  49  58 E14         N/A
LISCO            N/A     75  54  48 E6          N/A
BIG SPRINGS      N/A     72  61  68 CALM        N/A
$$

...OBSERVATIONS IN NORTH CENTRAL NEBRASKA...

CITY           SKY/WX    TMP DP  RH WIND       PRES   REMARKS
VALENTINE      PTCLDY    65  55  70 E9        29.97R
THEDFORD       CLEAR     66  58  76 SE3       29.96F
AINSWORTH      PTCLDY    62  55  80 E9        29.97S
O`NEILL        PTCLDY    63  59  87 E8        29.98R
ORD            PTCLDY    62  60  93 CALM      29.95R
BROKEN BOW     CLEAR     67  62  84 SE8       29.96R
SPRINGVIEW       N/A     63  57  80 E3          N/A
ROSE             N/A     70  64  81 NE6         N/A
NEWPORT          N/A     62  58  84 E8          N/A
COMSTOCK         N/A     70  67  89 SE6         N/A
CHAMBERS         N/A     65  58  79 E3          N/A
$$

...OBSERVATIONS IN SOUTHWEST NEBRASKA AND FAR NORTHEAST COLORADO...

CITY           SKY/WX    TMP DP  RH WIND       PRES   REMARKS
WRAY           FAIR      70  59  68 E8        29.95R
HOLYOKE        FAIR      68  59  73 S5        29.98R
IMPERIAL       PTCLDY    71  59  65 SE13      29.94R
OGALLALA       PTCLDY    69  61  75 E6        29.95R
NORTH PLATTE   CLEAR     61  58  90 E8        29.95R
MCCOOK         PTCLDY    68  61  78 E9        29.92S
LEXINGTON      CLEAR     67  62  84 E6        29.95R
PAXTON           N/A     67  60  78 CALM        N/A
SUTHERLAND       N/A     68  61  77 SE12        N/A
BRADY            N/A     64  59  85 CALM        N/A
GOTHENBURG       N/A     67  59  74 CALM        N/A
CALLAWAY         N/A     66  60  82 E8          N/A
$$

...SOME WEATHER OBSERVATIONS FROM AROUND THE REGION...

CITY           SKY/WX    TMP DP  RH WIND       PRES   REMARKS
DENVER         MOCLDY    67  41  38 S7        30.09R
LARAMIE        CLEAR     56  41  57 S7        30.19R
CHEYENNE       CLEAR     60  43  53 W6        30.12R
SCOTTSBLUFF    CLEAR     64  48  56 NE7       29.96R
RAPID CITY     CLEAR     64  51  62 E8        29.98R
PIERRE         MOCLDY    63  45  51 E15       29.93F
WINNER         FAIR      65  57  75 E9        29.96S
SIOUX FALLS    MOCLDY    59  55  87 CALM      29.98R
OMAHA          CLEAR     70  59  68 VRB5      29.95R
GRAND ISLAND   CLEAR     64  61  90 E5        29.96R
KANSAS CITY    CLEAR     66  63  90 E6        29.94R
WICHITA        MOCLDY    81  67  62 E8        29.85R
HAYS           PTCLDY    73  64  73 NE13      29.91R
LIBERAL        CLOUDY    73  59  60 SW7       29.94R
GOODLAND       MOCLDY    60  54  80 SE7       29.96R
$$



USA.gov is the U.S. government's official web portal to all federal, state and local government web resources and services.